Regional Weather Roundup
Issued by NWS Green Bay, WI

Home | Current Version | Previous Version | Graphics & Text | Print | Product List | Glossary Off
Versions: 1 2 3 4 5 6 7 8 9 10 11 12 13 14 15 16 17 18 19 20 21 22 23 24 25 26 27 28 29 30 31 32 33 34 35 36 37 38 39 40 41 42 43 44 45 46 47 48 49 50

000
ASUS43 KGRB 130500
RWRGRB

NORTH-CENTRAL AND NORTHEAST WISCONSIN REGIONAL WEATHER ROUNDUP
NATIONAL WEATHER SERVICE GREEN BAY WI
1100 PM CST FRI FEB 12 2016

WIZ005-009-010>012-018-019-130600-
NORTH CENTRAL WISCONSIN

CITY           SKY/WX    TMP DP  RH WIND       PRES   REMARKS
IRONWOOD       CLOUDY     1   0  92 NW14G20   30.38S VSB 1   WCI -17
MANITOWISH WTR NOT AVBL
ARBOR VITAE    NOT AVBL
EAGLE RIVER    NOT AVBL
LAND O LAKES   NOT AVBL
RHINELANDER    CLEAR     -5 -14  65 W8        30.34R WCI -20
PHILLIPS       NOT AVBL
ANTIGO         NOT AVBL
TOMAHAWK       NOT AVBL
MERRILL        NOT AVBL
$$

WIZ013-073-130600-
NORTHEAST WISCONSIN

CITY           SKY/WX    TMP DP  RH WIND       PRES   REMARKS
IRON MOUNTAIN  CLEAR     -6 -12  75 NW3       30.32R
MARINETTE      CLEAR      0 -11  60 W7        30.39S WCI -13
$$

WIZ017-030-035>037-045-130600-
CENTRAL WISCONSIN

CITY           SKY/WX    TMP DP  RH WIND       PRES   REMARKS
MEDFORD        NOT AVBL
WAUSAU         CLEAR     -1 -15  51 NW8       30.40R WCI -15
MOSINEE        NOT AVBL
MARSHFIELD     CLEAR     -3 -18  48 NW10      30.43R WCI -20
WISC RAPIDS    CLEAR     -2 -17  49 NW9       30.48R WCI -18
STEVENS POINT  NOT AVBL
WAUPACA        NOT AVBL
SHAWANO        PTCLDY     1 -12  54 W6        30.43S WCI -10
CLINTONVILLE   NOT AVBL
WAUTOMA        NOT AVBL
$$

WIZ038-039-048-051-130600-
FOX VALLEY

CITY           SKY/WX    TMP DP  RH WIND       PRES   REMARKS
NWS GREEN BAY  CLEAR     -1 -13  56 W10       30.44R WCI -17
APPLETON       CLEAR      0 -15  50 W12       30.42R WCI -18
OSHKOSH        CLEAR      0 -13  54 NW9       30.45R WCI -15
FOND DU LAC    CLEAR      1 -12  54 NW10      30.46R WCI -15
$$

WIZ022-050-052-130600-
EAST CENTRAL WISCONSIN

CITY           SKY/WX    TMP DP  RH WIND       PRES   REMARKS
EPHRAIM        FAIR       1  -8  67 NW10G16   30.36R WCI -15
STURGEON BAY   CLEAR      0 -11  60 W12       30.41R WCI -18
MANITOWOC      NOT AVBL
SHEBOYGAN      CLEAR      2 -12  52 NW12      30.43R WCI -15
$$

LMZ563-521-522-541>543-130600-
LAKESHORE

STATION/POSITION TIME  TEMP    WIND        PRES    VSBY  WAVE
                       AIR SEA DIR/SP/G                  HT/PER
                 (UTC) (F)     (DEG/KT/KT) (MB)    (MI)  (FT/S)
SHEBOYGAN LKSHOR 0400    4     310/ 14/ 18 1032.3R
KEWAUNEE LKSHORE 0400    2     310/ 10/ 15 1028.6R
ALGOMA MARINA    0426          330/  6/  9   N/A
SISTER BAY LKSHO 0420    2     330/ 24/ 28   N/A
CHAMBERS ISLAND  0400    2     260/  5/ 11 1028.8R
MENOMINEE LKSHOR 0400    1     270/  8     1028.0R
$$



USA.gov is the U.S. government's official web portal to all federal, state and local government web resources and services.